Zurück zum Katalog

COSMOS 409

AktivMilitärLEO
NORAD 5180·PAYLOAD·🇷🇺 Russia

Gestartet Apr 28, 1971 von Plesetsk Cosmodrome

Loading…

Nächste Überflüge (nächste 24 Stunden)

TLE

AktuellSource: Space-Track

Epoche: Sep 14, 2026, 08:44 UTC

1 05180U 71038A   26257.36400196  .00000203  00000-0  56857-3 0  9993
2 05180  73.9989 239.2211 0021997 112.3361  40.7911 13.17846976663993

Verfolge COSMOS 409 in Echtzeit mit AllMySat

Download on the App Store